Вернуться в каталог

FENGYUN 1C DEB

LostSSO
NORAD 37062·DEBRIS·🇨🇳 China

Запущен May 10, 1999 с Taiyuan Satellite Launch Center

Loading…

Ближайшие Пролёты (ближайшие 24 часа)

TLE

УстаревшееSource: Space-Track

Эпоха: Aug 27, 2013, 19:28 UTC

1 37062U 99025EEW 13239.81117959 +.00000694 +00000-0 +18360-3 0  9992
2 37062 098.6149 244.9623 0218378 003.9261 002.7389 14.39013980259774

Отслеживайте FENGYUN 1C DEB в реальном времени с AllMySat

Download on the App Store